Location: Byszew
(52.1813°N, 19.2693°E)
Time: 21:39:19
(UTC+00:00)

Cosmos 2322 - Pass Details

Date: 03 March 2021
Orbit: 842 x 853 km, 71.0° (Epoch: 15 April)

Event Time Altitude Azimuth Distance (km) Brightness Sun altitude
Rises 18:02:30 0° 181° (S) 3,410 6.8 -15.5°
Reaches altitude 10° 18:05:05 10° 173° (S) 2,478 6.0 -15.9°
Maximum altitude 18:10:16 37° 108° (ESE) 1,304 4.2 -16.7°
Drops below altitude 10° 18:15:27 10° 43° (NE) 2,492 5.9 -17.5°
Sets 18:18:04 0° 35° (NE) 3,431 6.6 -17.8°
